TimeCST,TemperatureF,Dew PointF,Humidity,Sea Level PressureIn,VisibilityMPH,Wind Direction,Wind SpeedMPH,Gust SpeedMPH,PrecipitationIn,Events,Conditions,WindDirDegrees,DateUTC
12:15 AM,44.6,14.0,29,29.99,10.0,WSW,13.8,-,N/A,,Clear,240,2013-01-18 06:15:00
12:35 AM,42.8,14.0,31,29.98,10.0,WSW,12.7,-,N/A,,Clear,250,2013-01-18 06:35:00
12:55 AM,44.6,14.0,29,29.98,10.0,West,10.4,-,N/A,,Clear,260,2013-01-18 06:55:00
1:15 AM,42.8,14.0,31,29.97,10.0,West,9.2,-,N/A,,Clear,260,2013-01-18 07:15:00
1:35 AM,44.6,12.2,27,29.97,10.0,WSW,10.4,-,N/A,,Clear,250,2013-01-18 07:35:00
1:55 AM,46.4,12.2,25,29.96,10.0,West,13.8,17.3,N/A,,Clear,260,2013-01-18 07:55:00
2:15 AM,44.6,12.2,27,29.96,10.0,WSW,12.7,17.3,N/A,,Clear,250,2013-01-18 08:15:00
2:35 AM,44.6,12.2,27,29.97,10.0,West,11.5,19.6,N/A,,Clear,260,2013-01-18 08:35:00
2:55 AM,44.6,12.2,27,29.97,10.0,West,13.8,18.4,N/A,,Clear,260,2013-01-18 08:55:00
3:15 AM,46.4,10.4,23,29.97,10.0,West,11.5,21.9,N/A,,Clear,260,2013-01-18 09:15:00
3:35 AM,46.4,10.4,23,29.96,10.0,West,13.8,-,N/A,,Clear,260,2013-01-18 09:35:00
3:55 AM,46.4,10.4,23,29.96,10.0,West,12.7,23.0,N/A,,Clear,270,2013-01-18 09:55:00
4:15 AM,46.4,10.4,23,29.95,10.0,West,15.0,20.7,N/A,,Clear,270,2013-01-18 10:15:00
4:35 AM,46.4,10.4,23,29.95,10.0,West,12.7,21.9,N/A,,Clear,280,2013-01-18 10:35:00
4:55 AM,46.4,10.4,23,29.95,10.0,West,12.7,21.9,N/A,,Clear,270,2013-01-18 10:55:00
5:15 AM,44.6,10.4,25,29.94,10.0,West,15.0,19.6,N/A,,Clear,270,2013-01-18 11:15:00
5:35 AM,44.6,10.4,25,29.94,10.0,West,15.0,20.7,N/A,,Clear,270,2013-01-18 11:35:00
5:55 AM,44.6,10.4,25,29.93,10.0,West,17.3,23.0,N/A,,Clear,270,2013-01-18 11:55:00
6:15 AM,44.6,10.4,25,29.93,10.0,West,13.8,18.4,N/A,,Clear,270,2013-01-18 12:15:00
6:35 AM,44.6,10.4,25,29.93,10.0,West,13.8,20.7,N/A,,Clear,270,2013-01-18 12:35:00
6:55 AM,44.6,10.4,25,29.93,10.0,West,16.1,21.9,N/A,,Clear,270,2013-01-18 12:55:00
7:15 AM,44.6,10.4,25,29.92,10.0,West,12.7,18.4,N/A,,Clear,270,2013-01-18 13:15:00
7:35 AM,44.6,10.4,25,29.93,10.0,West,16.1,23.0,N/A,,Clear,270,2013-01-18 13:35:00
7:55 AM,44.6,10.4,25,29.93,10.0,West,16.1,23.0,N/A,,Clear,280,2013-01-18 13:55:00
8:15 AM,44.6,10.4,25,29.93,10.0,West,16.1,26.5,N/A,,Clear,280,2013-01-18 14:15:00
8:35 AM,46.4,10.4,23,29.93,10.0,West,17.3,24.2,N/A,,Clear,280,2013-01-18 14:35:00
9:15 AM,46.4,10.4,23,29.94,10.0,West,17.3,27.6,N/A,,Clear,280,2013-01-18 15:15:00
9:35 AM,46.4,10.4,23,29.95,10.0,West,20.7,28.8,N/A,,Clear,280,2013-01-18 15:35:00
9:55 AM,46.4,10.4,23,29.95,10.0,West,19.6,26.5,N/A,,Clear,280,2013-01-18 15:55:00
10:15 AM,48.2,10.4,22,29.96,10.0,West,13.8,24.2,N/A,,Clear,280,2013-01-18 16:15:00
10:35 AM,48.2,10.4,22,29.96,10.0,West,17.3,27.6,N/A,,Clear,280,2013-01-18 16:35:00
10:55 AM,48.2,12.2,24,29.96,10.0,West,17.3,25.3,N/A,,Clear,280,2013-01-18 16:55:00
11:35 AM,50.0,14.0,24,29.94,10.0,WNW,18.4,24.2,N/A,,Clear,290,2013-01-18 17:35:00
11:55 AM,50.0,12.2,22,29.93,10.0,West,19.6,29.9,N/A,,Clear,280,2013-01-18 17:55:00
12:15 PM,50.0,14.0,24,29.92,10.0,West,17.3,26.5,N/A,,Clear,280,2013-01-18 18:15:00
12:35 PM,50.0,14.0,24,29.91,10.0,West,18.4,25.3,N/A,,Clear,280,2013-01-18 18:35:00
12:55 PM,50.0,14.0,24,29.90,10.0,West,19.6,26.5,N/A,,Clear,280,2013-01-18 18:55:00
1:15 PM,50.0,14.0,24,29.90,10.0,West,15.0,24.2,N/A,,Clear,270,2013-01-18 19:15:00
1:55 PM,50.0,14.0,24,29.89,10.0,WNW,16.1,25.3,N/A,,Clear,300,2013-01-18 19:55:00
2:15 PM,50.0,12.2,22,29.88,10.0,West,19.6,28.8,N/A,,Clear,280,2013-01-18 20:15:00
2:35 PM,50.0,12.2,22,29.88,10.0,West,18.4,26.5,N/A,,Clear,270,2013-01-18 20:35:00
2:55 PM,48.2,14.0,25,29.88,10.0,West,12.7,18.4,N/A,,Clear,280,2013-01-18 20:55:00
3:15 PM,50.0,14.0,24,29.87,10.0,West,17.3,26.5,N/A,,Clear,270,2013-01-18 21:15:00
3:35 PM,50.0,14.0,24,29.87,10.0,West,17.3,25.3,N/A,Thunderstorm,Thunderstorm,280,2013-01-18 21:35:00
3:55 PM,48.2,14.0,25,29.87,10.0,West,15.0,23.0,N/A,,Clear,280,2013-01-18 21:55:00
4:15 PM,48.2,14.0,25,29.87,10.0,West,16.1,27.6,N/A,,Clear,280,2013-01-18 22:15:00
4:35 PM,48.2,12.2,24,29.87,10.0,West,13.8,20.7,N/A,,Clear,280,2013-01-18 22:35:00
4:55 PM,48.2,10.4,22,29.86,10.0,West,16.1,20.7,N/A,,Clear,270,2013-01-18 22:55:00
5:15 PM,48.2,12.2,24,29.86,10.0,West,17.3,26.5,N/A,,Clear,280,2013-01-18 23:15:00
5:35 PM,48.2,12.2,24,29.86,10.0,West,16.1,25.3,N/A,,Clear,280,2013-01-18 23:35:00
5:55 PM,48.2,12.2,24,29.86,10.0,West,18.4,34.5,N/A,,Clear,280,2013-01-18 23:55:00
6:15 PM,48.2,12.2,24,29.87,10.0,West,18.4,29.9,N/A,,Clear,280,2013-01-19 00:15:00
6:35 PM,48.2,12.2,24,29.86,10.0,West,18.4,31.1,N/A,,Clear,280,2013-01-19 00:35:00
6:55 PM,46.4,14.0,27,29.87,10.0,West,15.0,20.7,N/A,,Clear,280,2013-01-19 00:55:00
7:15 PM,46.4,12.2,25,29.86,10.0,West,16.1,25.3,N/A,,Clear,280,2013-01-19 01:15:00
7:35 PM,48.2,12.2,24,29.86,10.0,West,18.4,26.5,N/A,,Clear,280,2013-01-19 01:35:00
7:55 PM,48.2,14.0,25,29.86,10.0,West,18.4,25.3,N/A,,Clear,280,2013-01-19 01:55:00
8:35 PM,46.4,14.0,27,29.87,10.0,WNW,16.1,23.0,N/A,,Clear,290,2013-01-19 02:35:00
8:55 PM,46.4,14.0,27,29.87,10.0,West,12.7,20.7,N/A,,Clear,280,2013-01-19 02:55:00
9:15 PM,46.4,14.0,27,29.87,10.0,WNW,15.0,21.9,N/A,,Clear,300,2013-01-19 03:15:00
9:35 PM,46.4,14.0,27,29.88,10.0,WNW,15.0,24.2,N/A,,Clear,300,2013-01-19 03:35:00
9:55 PM,46.4,14.0,27,29.88,10.0,WNW,13.8,-,N/A,,Partly Cloudy,300,2013-01-19 03:55:00
10:15 PM,46.4,15.8,29,29.89,10.0,WNW,13.8,19.6,N/A,,Mostly Cloudy,290,2013-01-19 04:15:00
10:35 PM,46.4,15.8,29,29.89,10.0,WNW,16.1,21.9,N/A,,Mostly Cloudy,290,2013-01-19 04:35:00
10:55 PM,44.6,15.8,31,29.90,10.0,WNW,17.3,23.0,N/A,,Scattered Clouds,290,2013-01-19 04:55:00
11:15 PM,44.6,15.8,31,29.90,10.0,WNW,15.0,23.0,N/A,,Mostly Cloudy,290,2013-01-19 05:15:00
11:35 PM,44.6,15.8,31,29.90,10.0,West,16.1,21.9,N/A,,Scattered Clouds,280,2013-01-19 05:35:00
11:55 PM,42.8,15.8,34,29.90,10.0,WNW,17.3,25.3,N/A,,Clear,290,2013-01-19 05:55:00